• In Belarus
  • List of Countries
  • For 7 days
  • Water Temperature
  • Weather Map
  • Weather Widgets
  • user-avatar
    Login

    Hourly Weather Aymen

    Today, 4 April, Saturday

    Time Temperature Precipitation Wind Pressure Humidity
    00:00 +9°C° 0 mm 2 mps 691 mmHg 62%
    01:00 +9°C° 0 mm 2 mps 691 mmHg 60%
    02:00 +9°C° 0 mm 2 mps 691 mmHg 58%
    03:00 +9°C° 0 mm 2 mps 691 mmHg 56%
    04:00 +8°C° 0 mm 2 mps 691 mmHg 54%
    05:00 +8°C° 0 mm 2 mps 691 mmHg 52%
    06:00 +10°C° 0 mm 2 mps 691 mmHg 50%
    07:00 +12°C° 0 mm 1 mps 691 mmHg 47%
    08:00 +14°C° 0 mm 1 mps 691 mmHg 44%
    09:00 +15°C° 0 mm 2 mps 691 mmHg 44%
    10:00 +16°C° 0 mm 2 mps 691 mmHg 44%
    11:00 +17°C° 0 mm 3 mps 691 mmHg 46%
    12:00 +18°C° 0.1 mm 3 mps 691 mmHg 45%
    13:00 +18°C° 0.1 mm 3 mps 691 mmHg 44%
    14:00 +19°C° 0.1 mm 3 mps 690 mmHg 43%
    15:00 +19°C° 0.1 mm 3 mps 690 mmHg 44%
    16:00 +18°C° 0.1 mm 2 mps 690 mmHg 46%
    17:00 +18°C° 0 mm 2 mps 690 mmHg 47%
    18:00 +16°C° 0 mm 3 mps 690 mmHg 47%
    19:00 +14°C° 0 mm 3 mps 690 mmHg 47%
    20:00 +13°C° 0 mm 3 mps 690 mmHg 47%
    21:00 +12°C° 0 mm 3 mps 690 mmHg 45%
    22:00 +12°C° 0 mm 3 mps 690 mmHg 42%
    23:00 +12°C° 0 mm 3 mps 690 mmHg 40%

    Tomorrow, 5 April, Sunday

    Time Temperature Precipitation Wind Pressure Humidity
    00:00 +11°C° 0 mm 3 mps 690 mmHg 39%
    01:00 +11°C° 0 mm 3 mps 689 mmHg 37%
    02:00 +12°C° 0 mm 2 mps 689 mmHg 36%
    03:00 +11°C° 0 mm 3 mps 689 mmHg 36%
    04:00 +11°C° 0 mm 3 mps 689 mmHg 36%
    05:00 +10°C° 0 mm 3 mps 689 mmHg 36%
    06:00 +13°C° 0 mm 2 mps 689 mmHg 37%
    07:00 +14°C° 0 mm 2 mps 689 mmHg 38%
    08:00 +16°C° 0 mm 2 mps 690 mmHg 38%
    09:00 +17°C° 0 mm 2 mps 690 mmHg 37%
    10:00 +18°C° 0 mm 2 mps 690 mmHg 36%
    11:00 +19°C° 0 mm 2 mps 690 mmHg 35%
    12:00 +19°C° 0 mm 2 mps 690 mmHg 35%
    13:00 +20°C° 0 mm 2 mps 690 mmHg 36%
    14:00 +21°C° 0 mm 3 mps 690 mmHg 37%
    15:00 +20°C° 0.1 mm 2 mps 690 mmHg 40%
    16:00 +19°C° 0.1 mm 2 mps 690 mmHg 43%
    17:00 +19°C° 0.1 mm 2 mps 690 mmHg 46%
    18:00 +18°C° 0.1 mm 2 mps 690 mmHg 48%
    19:00 +16°C° 0.1 mm 2 mps 690 mmHg 50%
    20:00 +15°C° 0.1 mm 1 mps 690 mmHg 53%
    21:00 +15°C° 0 mm 2 mps 690 mmHg 52%
    22:00 +14°C° 0 mm 2 mps 690 mmHg 52%
    23:00 +14°C° 0 mm 2 mps 690 mmHg 52%

    Day after tomorrow, 6 April, Monday

    Time Temperature Precipitation Wind Pressure Humidity
    00:00 +13°C° 0 mm 2 mps 689 mmHg 52%
    01:00 +13°C° 0 mm 2 mps 689 mmHg 51%
    02:00 +12°C° 0 mm 3 mps 689 mmHg 51%
    03:00 +11°C° 0 mm 3 mps 689 mmHg 51%
    04:00 +11°C° 0 mm 3 mps 689 mmHg 52%
    05:00 +11°C° 0 mm 3 mps 689 mmHg 53%
    06:00 +11°C° 0 mm 3 mps 689 mmHg 57%
    07:00 +12°C° 0 mm 4 mps 689 mmHg 60%
    08:00 +13°C° 0 mm 4 mps 690 mmHg 64%
    09:00 +13°C° 0 mm 4 mps 689 mmHg 67%
    10:00 +13°C° 0 mm 3 mps 689 mmHg 70%
    11:00 +13°C° 0 mm 3 mps 689 mmHg 73%
    12:00 +15°C° 0.1 mm 2 mps 689 mmHg 70%
    13:00 +16°C° 0.1 mm 2 mps 689 mmHg 67%
    14:00 +17°C° 0.1 mm 2 mps 689 mmHg 64%
    15:00 +17°C° 0.1 mm 2 mps 689 mmHg 64%
    16:00 +17°C° 0.1 mm 2 mps 689 mmHg 63%
    17:00 +17°C° 0.1 mm 2 mps 688 mmHg 63%
    18:00 +16°C° 0 mm 2 mps 688 mmHg 63%
    19:00 +15°C° 0 mm 2 mps 688 mmHg 63%
    20:00 +14°C° 0 mm 2 mps 688 mmHg 63%
    21:00 +13°C° 0 mm 2 mps 688 mmHg 60%
    22:00 +13°C° 0 mm 2 mps 688 mmHg 57%
    23:00 +13°C° 0 mm 2 mps 687 mmHg 54%

    7 April, Tuesday

    Time Temperature Precipitation Wind Pressure Humidity
    00:00 +13°C° 0 mm 2 mps 687 mmHg 53%
    01:00 +11°C° 0 mm 3 mps 686 mmHg 51%
    02:00 +11°C° 0 mm 3 mps 686 mmHg 50%
    03:00 +11°C° 0 mm 3 mps 686 mmHg 49%
    04:00 +11°C° 0 mm 3 mps 685 mmHg 48%
    05:00 +11°C° 0 mm 3 mps 685 mmHg 48%
    06:00 +13°C° 0 mm 2 mps 686 mmHg 46%
    07:00 +15°C° 0 mm 2 mps 686 mmHg 45%
    08:00 +16°C° 0 mm 2 mps 686 mmHg 44%
    09:00 +18°C° 0 mm 2 mps 686 mmHg 42%
    10:00 +19°C° 0 mm 2 mps 686 mmHg 41%
    11:00 +20°C° 0 mm 2 mps 686 mmHg 39%
    12:00 +21°C° 0.1 mm 2 mps 686 mmHg 39%
    13:00 +23°C° 0.1 mm 2 mps 686 mmHg 38%
    14:00 +22°C° 0.1 mm 3 mps 686 mmHg 37%
    15:00 +23°C° 0.1 mm 2 mps 687 mmHg 40%
    16:00 +21°C° 0.1 mm 2 mps 687 mmHg 42%
    17:00 +22°C° 0.1 mm 1 mps 687 mmHg 45%
    18:00 +18°C° 3.5 mm 2 mps 687 mmHg 61%
    19:00 +13°C° 3.5 mm 4 mps 688 mmHg 77%
    20:00 +9°C° 3.5 mm 5 mps 688 mmHg 93%
    21:00 +10°C° 1.8 mm 3 mps 688 mmHg 92%
    22:00 +10°C° 1.8 mm 2 mps 688 mmHg 91%
    23:00 +11°C° 1.8 mm 1 mps 689 mmHg 91%

    8 April, Wednesday

    Time Temperature Precipitation Wind Pressure Humidity
    00:00 +11°C° 0 mm 1 mps 688 mmHg 89%
    01:00 +11°C° 0 mm 1 mps 688 mmHg 87%
    02:00 +11°C° 0 mm 1 mps 687 mmHg 86%
    03:00 +11°C° 0 mm 1 mps 687 mmHg 85%
    04:00 +10°C° 0 mm 1 mps 687 mmHg 84%
    05:00 +10°C° 0 mm 1 mps 686 mmHg 83%
    06:00 +11°C° 0 mm 1 mps 686 mmHg 81%
    07:00 +12°C° 0 mm 2 mps 686 mmHg 80%
    08:00 +12°C° 0 mm 2 mps 686 mmHg 79%
    09:00 +12°C° 0 mm 3 mps 686 mmHg 76%
    10:00 +13°C° 0 mm 3 mps 685 mmHg 73%
    11:00 +13°C° 0 mm 3 mps 685 mmHg 70%
    12:00 +13°C° 0 mm 4 mps 685 mmHg 69%
    13:00 +13°C° 0 mm 4 mps 685 mmHg 68%
    14:00 +12°C° 0 mm 4 mps 685 mmHg 67%
    15:00 +12°C° 0 mm 3 mps 684 mmHg 67%
    16:00 +11°C° 0 mm 3 mps 684 mmHg 66%
    17:00 +10°C° 0 mm 2 mps 684 mmHg 66%
    18:00 +10°C° 0 mm 2 mps 684 mmHg 64%
    19:00 +10°C° 0 mm 2 mps 683 mmHg 62%
    20:00 +9°C° 0 mm 2 mps 683 mmHg 60%
    21:00 +9°C° 0 mm 3 mps 683 mmHg 61%
    22:00 +8°C° 0 mm 3 mps 683 mmHg 63%
    23:00 +6°C° 0 mm 4 mps 683 mmHg 64%

    9 April, Thursday

    Time Temperature Precipitation Wind Pressure Humidity
    00:00 +6°C° 0 mm 4 mps 683 mmHg 68%
    01:00 +5°C° 0 mm 4 mps 684 mmHg 72%
    02:00 +3°C° 0 mm 5 mps 685 mmHg 76%
    03:00 +4°C° 0.4 mm 4 mps 686 mmHg 81%
    04:00 +3°C° 0.4 mm 4 mps 688 mmHg 86%
    05:00 +3°C° 0.4 mm 4 mps 689 mmHg 92%
    06:00 +3°C° 1.1 mm 4 mps 690 mmHg 92%
    07:00 +1°C° 1.1 mm 4 mps 690 mmHg 92%
    08:00 +1°C° 1.1 mm 4 mps 691 mmHg 92%
    09:00 +3°C° 0.4 mm 3 mps 691 mmHg 88%
    10:00 +3°C° 0.4 mm 3 mps 691 mmHg 84%
    11:00 +5°C° 0.4 mm 2 mps 691 mmHg 79%
    12:00 +5°C° 0.3 mm 2 mps 691 mmHg 76%
    13:00 +6°C° 0.3 mm 2 mps 691 mmHg 73%
    14:00 +6°C° 0.3 mm 2 mps 692 mmHg 70%
    15:00 +6°C° 0.2 mm 2 mps 692 mmHg 71%
    16:00 +6°C° 0.2 mm 2 mps 692 mmHg 71%
    17:00 +6°C° 0.2 mm 2 mps 692 mmHg 71%
    18:00 +5°C° 0.3 mm 2 mps 693 mmHg 76%
    19:00 +4°C° 0.3 mm 2 mps 693 mmHg 81%
    20:00 +3°C° 0.3 mm 2 mps 694 mmHg 86%
    21:00 +3°C° 0.2 mm 2 mps 694 mmHg 87%
    22:00 +3°C° 0.2 mm 2 mps 694 mmHg 88%
    23:00 +3°C° 0.2 mm 1 mps 694 mmHg 89%
    Show more